NORTHEAST SUFFOLK  -  Winter Weather Advisory Winter Weather Advisory        NORTHERN NASSAU  -  Winter Weather Advisory Winter Weather Advisory        NORTHWEST SUFFOLK  -  Winter Weather Advisory Winter Weather Advisory        SOUTHEAST SUFFOLK  -  Winter Weather Advisory Winter Weather Advisory        SOUTHERN NASSAU  -  Winter Weather Advisory Winter Weather Advisory        SOUTHWEST SUFFOLK  -  Winter Weather Advisory Winter Weather Advisory      

Active alerts

Northern Nassau
  Details for Northern Nassau Winter Weather Advisory
Southern Nassau
  Details for Southern Nassau Winter Weather Advisory
Northwest Suffolk
  Details for Northwest Suffolk Winter Weather Advisory
Southwest Suffolk
  Details for Southwest Suffolk Winter Weather Advisory
Northeast Suffolk
  Details for Northeast Suffolk Winter Weather Advisory
Southeast Suffolk
  Details for Southeast Suffolk Winter Weather Advisory


WXM80 ListenWXM80 Stop

You find our weather info also at:

UK Metoffice

WeatherCloud

Weather Underground

Northeastern Weather Network

AWEKAS

Citizen Weather Observer Program (CWOP)

HAMweather, WeatherForYou, PWS Weather


Weather Underground History page Text

Daily Summary for March 10, 2016 Units:  English    Metric   Both
« Previous Day
Next Day »
Daily Weekly Monthly Yearly Custom
  High: Low: Average:
Temperature: 79.2 °F 61.8 °F 67.4 °F
Dew Point: 56.4 °F 47.9 °F 51.5 °F
Humidity: 77 % 39 % 58 %
Wind Speed: 6.6 mph 0.0 mph 2.8 mph
Wind Gust: 12.0 mph - -
Wind:- - SW
Pressure: 29.99 in 29.84 in -
Precipitation: 0.00 in    
Historical Graphs
 
 
Tabular Data for March 10, 2016
Time Temperature Dew Point Pressure Wind Wind Speed Wind Gust Humidity Rainfall Rate (Hourly)
00:03 64.4 °F 47.9 °F 29.97 in SW 4.8 mph 6.9 mph 55 % 0.00 in
01:14 64.7 °F 49.1 °F 29.97 in West 4.8 mph 12.0 mph 57 % 0.00 in
01:19 64.6 °F 49.0 °F 29.97 in SSW 4.3 mph 5.8 mph 57 % 0.00 in
01:24 64.5 °F 48.9 °F 29.96 in SW 5.0 mph 7.0 mph 57 % 0.00 in
01:29 64.4 °F 49.3 °F 29.96 in SSW 3.9 mph 7.0 mph 58 % 0.00 in
01:34 64.4 °F 49.3 °F 29.96 in SSW 4.3 mph 5.8 mph 58 % 0.00 in
01:39 64.3 °F 49.2 °F 29.96 in SSW 5.0 mph 7.0 mph 58 % 0.00 in
01:44 64.3 °F 49.7 °F 29.96 in SSW 3.0 mph 4.6 mph 59 % 0.00 in
01:49 64.2 °F 49.6 °F 29.96 in SW 2.8 mph 8.1 mph 59 % 0.00 in
01:55 64.1 °F 49.5 °F 29.96 in SSW 4.4 mph 8.1 mph 59 % 0.00 in
02:00 64.0 °F 49.4 °F 29.96 in SW 3.9 mph 6.9 mph 59 % 0.00 in
02:05 63.9 °F 49.3 °F 29.95 in SW 6.1 mph 7.0 mph 59 % 0.00 in
02:10 63.8 °F 49.6 °F 29.95 in SSW 4.4 mph 5.8 mph 60 % 0.00 in
02:15 63.7 °F 49.5 °F 29.95 in SSW 4.3 mph 6.9 mph 60 % 0.00 in
02:20 63.5 °F 49.4 °F 29.95 in SSW 4.7 mph 6.9 mph 60 % 0.00 in
02:25 63.4 °F 49.7 °F 29.95 in SSW 3.4 mph 5.8 mph 61 % 0.00 in
02:30 63.4 °F 49.7 °F 29.95 in WSW 4.6 mph 5.8 mph 61 % 0.00 in
02:35 63.2 °F 49.5 °F 29.95 in SW 3.4 mph 4.6 mph 61 % 0.00 in
02:40 63.1 °F 49.4 °F 29.95 in South 4.0 mph 5.8 mph 61 % 0.00 in
02:46 62.9 °F 49.7 °F 29.95 in SW 4.5 mph 8.1 mph 62 % 0.00 in
02:51 62.7 °F 49.5 °F 29.95 in SW 3.5 mph 5.0 mph 62 % 0.00 in
02:56 62.6 °F 49.4 °F 29.95 in SW 4.2 mph 6.0 mph 62 % 0.00 in
03:01 62.5 °F 49.3 °F 29.94 in SW 3.0 mph 5.0 mph 62 % 0.00 in
03:06 62.4 °F 49.2 °F 29.95 in SW 3.9 mph 5.8 mph 62 % 0.00 in
03:11 62.3 °F 49.5 °F 29.95 in WSW 3.5 mph 4.6 mph 63 % 0.00 in
03:16 62.2 °F 49.4 °F 29.95 in SW 2.9 mph 4.6 mph 63 % 0.00 in
03:21 62.1 °F 49.4 °F 29.95 in SSW 3.9 mph 5.8 mph 63 % 0.00 in
03:31 62.1 °F 49.4 °F 29.95 in SSW 4.3 mph 6.9 mph 63 % 0.00 in
03:37 62.1 °F 49.8 °F 29.95 in SW 5.2 mph 6.9 mph 64 % 0.00 in
03:42 62.1 °F 49.8 °F 29.95 in West 1.5 mph 4.6 mph 64 % 0.00 in
03:47 62.1 °F 49.8 °F 29.95 in SSW 3.7 mph 9.2 mph 64 % 0.00 in
03:52 62.1 °F 49.8 °F 29.95 in SW 3.6 mph 5.0 mph 64 % 0.00 in
03:57 62.1 °F 49.8 °F 29.95 in SSW 4.1 mph 7.0 mph 64 % 0.00 in
04:07 62.2 °F 49.9 °F 29.95 in SSW 5.4 mph 9.2 mph 64 % 0.00 in
04:12 62.3 °F 50.0 °F 29.95 in SSW 2.8 mph 4.6 mph 64 % 0.00 in
04:17 62.3 °F 50.0 °F 29.95 in WSW 4.4 mph 8.1 mph 64 % 0.00 in
04:22 62.3 °F 50.0 °F 29.95 in SW 4.3 mph 5.8 mph 64 % 0.00 in
04:28 62.3 °F 50.0 °F 29.95 in SW 3.4 mph 9.2 mph 64 % 0.00 in
04:33 62.3 °F 50.0 °F 29.96 in SSW 3.3 mph 6.9 mph 64 % 0.00 in
04:38 62.3 °F 50.0 °F 29.95 in SSW 5.0 mph 9.2 mph 64 % 0.00 in
04:43 62.2 °F 49.9 °F 29.96 in SW 3.8 mph 5.8 mph 64 % 0.00 in
04:48 62.2 °F 49.9 °F 29.96 in SSW 2.1 mph 4.6 mph 64 % 0.00 in
04:53 62.2 °F 49.9 °F 29.95 in SW 2.8 mph 5.8 mph 64 % 0.00 in
04:58 62.2 °F 49.9 °F 29.96 in SW 2.7 mph 3.5 mph 64 % 0.00 in
05:08 62.1 °F 49.8 °F 29.96 in WSW 2.8 mph 6.9 mph 64 % 0.00 in
05:13 62.1 °F 49.8 °F 29.96 in SW 2.1 mph 5.8 mph 64 % 0.00 in
05:19 62.0 °F 49.7 °F 29.96 in SSW 5.6 mph 7.0 mph 64 % 0.00 in
05:24 62.0 °F 49.7 °F 29.96 in SSW 3.2 mph 5.8 mph 64 % 0.00 in
05:29 62.0 °F 49.7 °F 29.96 in SW 3.0 mph 7.0 mph 64 % 0.00 in
05:34 62.0 °F 49.7 °F 29.97 in SW 3.7 mph 6.9 mph 64 % 0.00 in
05:39 62.0 °F 49.7 °F 29.97 in SSW 3.7 mph 6.0 mph 64 % 0.00 in
05:44 62.0 °F 49.7 °F 29.97 in SSW 2.5 mph 5.8 mph 64 % 0.00 in
05:49 62.0 °F 49.7 °F 29.97 in SW 4.4 mph 8.1 mph 64 % 0.00 in
05:54 62.0 °F 49.7 °F 29.97 in SSW 4.2 mph 6.9 mph 64 % 0.00 in
05:59 62.0 °F 49.7 °F 29.97 in SW 3.4 mph 5.8 mph 64 % 0.00 in
06:04 62.0 °F 49.3 °F 29.97 in SW 4.8 mph 9.2 mph 63 % 0.00 in
06:10 62.1 °F 49.4 °F 29.97 in SW 3.1 mph 6.9 mph 63 % 0.00 in
06:15 62.1 °F 49.4 °F 29.96 in WSW 3.4 mph 5.8 mph 63 % 0.00 in
06:20 62.0 °F 49.3 °F 29.96 in SSW 2.8 mph 6.9 mph 63 % 0.00 in
06:25 62.0 °F 49.3 °F 29.96 in SW 3.6 mph 4.6 mph 63 % 0.00 in
06:30 61.9 °F 49.2 °F 29.97 in SSW 3.2 mph 5.8 mph 63 % 0.00 in
06:35 61.9 °F 49.2 °F 29.97 in SW 4.2 mph 6.9 mph 63 % 0.00 in
06:37 61.9 °F 49.2 °F 29.96 in SSW 3.2 mph 3.5 mph 63 % 0.00 in
06:42 61.8 °F 49.5 °F 29.97 in SW 2.9 mph 4.6 mph 64 % 0.00 in
06:47 61.8 °F 49.5 °F 29.96 in SSW 2.6 mph 5.0 mph 64 % 0.00 in
06:52 61.8 °F 49.5 °F 29.97 in South 3.0 mph 4.6 mph 64 % 0.00 in
06:57 61.8 °F 49.5 °F 29.97 in SW 3.8 mph 5.0 mph 64 % 0.00 in
07:02 61.9 °F 49.2 °F 29.97 in SW 2.3 mph 4.6 mph 63 % 0.00 in
07:07 62.0 °F 49.7 °F 29.98 in SW 3.5 mph 5.8 mph 64 % 0.00 in
07:13 62.2 °F 49.9 °F 29.98 in WSW 5.7 mph 5.8 mph 64 % 0.00 in
07:18 62.3 °F 50.0 °F 29.98 in SSW 2.8 mph 8.1 mph 64 % 0.00 in
07:23 62.4 °F 49.6 °F 29.98 in SW 4.3 mph 6.9 mph 63 % 0.00 in
07:28 62.5 °F 50.2 °F 29.98 in SW 4.0 mph 6.9 mph 64 % 0.00 in
07:33 62.6 °F 49.8 °F 29.98 in SW 3.3 mph 7.0 mph 63 % 0.00 in
07:38 62.7 °F 50.3 °F 29.99 in SW 4.4 mph 5.8 mph 64 % 0.00 in
07:48 63.1 °F 50.3 °F 29.98 in South 3.9 mph 6.0 mph 63 % 0.00 in
07:53 63.4 °F 50.6 °F 29.98 in SSW 5.9 mph 6.9 mph 63 % 0.00 in
07:58 63.6 °F 50.3 °F 29.99 in South 5.5 mph 6.9 mph 62 % 0.00 in
08:09 63.9 °F 50.6 °F 29.99 in WSW 3.3 mph 5.8 mph 62 % 0.00 in
08:14 64.0 °F 50.3 °F 29.99 in SW 5.1 mph 8.1 mph 61 % 0.00 in
08:19 64.2 °F 50.9 °F 29.99 in SW 3.5 mph 6.0 mph 62 % 0.00 in
08:24 64.4 °F 51.1 °F 29.99 in SW 4.2 mph 6.9 mph 62 % 0.00 in
08:29 64.9 °F 51.6 °F 29.99 in South 4.0 mph 7.0 mph 62 % 0.00 in
08:34 65.4 °F 51.1 °F 29.99 in WSW 4.3 mph 8.1 mph 60 % 0.00 in
08:39 66.0 °F 51.3 °F 29.99 in SSW 5.9 mph 8.0 mph 59 % 0.00 in
08:44 66.6 °F 51.4 °F 29.98 in SSW 5.7 mph 7.0 mph 58 % 0.00 in
08:49 67.1 °F 50.9 °F 29.99 in SW 4.6 mph 9.2 mph 56 % 0.00 in
08:55 67.6 °F 51.3 °F 29.99 in South 5.4 mph 6.9 mph 56 % 0.00 in
09:00 68.1 °F 51.3 °F 29.99 in SSW 5.4 mph 8.1 mph 55 % 0.00 in
09:05 68.5 °F 51.2 °F 29.99 in WSW 5.5 mph 6.9 mph 54 % 0.00 in
09:10 68.8 °F 51.5 °F 29.99 in SSW 5.1 mph 8.1 mph 54 % 0.00 in
09:15 69.3 °F 51.4 °F 29.99 in SW 4.9 mph 6.9 mph 53 % 0.00 in
09:20 69.9 °F 51.5 °F 29.99 in SW 3.2 mph 6.9 mph 52 % 0.00 in
09:25 70.5 °F 52.0 °F 29.99 in WSW 4.6 mph 5.8 mph 52 % 0.00 in
09:30 71.2 °F 51.6 °F 29.99 in WSW 3.6 mph 8.1 mph 50 % 0.00 in
09:35 71.8 °F 51.6 °F 29.99 in WSW 4.0 mph 5.8 mph 49 % 0.00 in
09:40 72.4 °F 51.6 °F 29.99 in SSW 6.6 mph 10.4 mph 48 % 0.00 in
09:46 72.9 °F 52.1 °F 29.99 in SSW 1.6 mph 3.5 mph 48 % 0.00 in
09:51 73.4 °F 51.4 °F 29.99 in WSW 3.8 mph 8.1 mph 46 % 0.00 in
09:56 73.6 °F 51.5 °F 29.98 in WSW 3.7 mph 5.0 mph 46 % 0.00 in
10:01 73.9 °F 51.2 °F 29.98 in West 6.1 mph 6.9 mph 45 % 0.00 in
10:06 74.3 °F 51.6 °F 29.98 in WSW 4.1 mph 6.9 mph 45 % 0.00 in
10:11 74.8 °F 52.0 °F 29.98 in WNW 4.4 mph 6.9 mph 45 % 0.00 in
10:16 75.3 °F 51.3 °F 29.98 in West 3.5 mph 5.8 mph 43 % 0.00 in
10:21 75.8 °F 51.1 °F 29.98 in WNW 2.5 mph 8.1 mph 42 % 0.00 in
10:26 76.2 °F 53.3 °F 29.97 in WNW 2.4 mph 4.6 mph 45 % 0.00 in
10:31 76.8 °F 52.0 °F 29.97 in NW 2.2 mph 4.0 mph 42 % 0.00 in
10:37 77.3 °F 52.4 °F 29.97 in West 4.6 mph 4.6 mph 42 % 0.00 in
10:42 77.6 °F 52.7 °F 29.97 in WSW 4.2 mph 5.8 mph 42 % 0.00 in
11:11 79.1 °F 52.0 °F 29.96 in WSW 4.9 mph 10.4 mph 39 % 0.00 in
11:16 79.1 °F 52.7 °F 29.96 in WSW 3.3 mph 7.0 mph 40 % 0.00 in
11:21 79.2 °F 52.1 °F 29.96 in West 3.7 mph 6.9 mph 39 % 0.00 in
11:26 79.1 °F 52.7 °F 29.96 in WNW 2.7 mph 5.0 mph 40 % 0.00 in
11:31 78.9 °F 51.8 °F 29.95 in WNW 2.8 mph 3.5 mph 39 % 0.00 in
11:36 78.9 °F 52.5 °F 29.95 in WNW 1.6 mph 3.5 mph 40 % 0.00 in
11:42 79.0 °F 51.9 °F 29.95 in WNW 3.9 mph 3.9 mph 39 % 0.00 in
12:25 77.2 °F 51.7 °F 29.94 in Calm   5.0 mph 41 % 0.00 in
12:30 77.0 °F 52.8 °F 29.94 in West 1.8 mph 4.0 mph 43 % 0.00 in
12:36 76.8 °F 52.0 °F 29.94 in SSW 2.8 mph 5.8 mph 42 % 0.00 in
12:41 76.6 °F 53.1 °F 29.94 in SSW 5.0 mph 10.4 mph 44 % 0.00 in
12:46 76.3 °F 53.4 °F 29.94 in South 4.2 mph 9.2 mph 45 % 0.00 in
12:51 75.8 °F 52.9 °F 29.94 in SSW 3.2 mph 8.1 mph 45 % 0.00 in
12:56 75.3 °F 52.5 °F 29.94 in SSW 4.4 mph 6.9 mph 45 % 0.00 in
13:01 75.0 °F 52.8 °F 29.94 in SW 3.0 mph 5.0 mph 46 % 0.00 in
13:06 74.6 °F 53.0 °F 29.93 in South 5.0 mph 7.0 mph 47 % 0.00 in
13:11 74.3 °F 53.9 °F 29.93 in SSW 3.6 mph 5.8 mph 49 % 0.00 in
13:16 73.9 °F 53.0 °F 29.93 in South 3.5 mph 9.2 mph 48 % 0.00 in
13:21 73.6 °F 52.7 °F 29.93 in South 3.5 mph 4.6 mph 48 % 0.00 in
13:27 73.4 °F 53.6 °F 29.93 in SSW 4.8 mph 7.0 mph 50 % 0.00 in
13:32 73.1 °F 53.4 °F 29.92 in SSW 3.7 mph 6.0 mph 50 % 0.00 in
13:37 73.1 °F 53.9 °F 29.92 in SSW 3.8 mph 6.9 mph 51 % 0.00 in
13:42 73.0 °F 53.3 °F 29.92 in SSW 4.4 mph 6.9 mph 50 % 0.00 in
13:47 72.9 °F 52.6 °F 29.91 in SSW 0.8 mph 3.5 mph 49 % 0.00 in
13:52 72.9 °F 52.6 °F 29.91 in SW 3.2 mph 5.8 mph 49 % 0.00 in
13:57 73.0 °F 52.7 °F 29.92 in SSW 3.9 mph 5.8 mph 49 % 0.00 in
14:02 73.0 °F 52.7 °F 29.91 in SSW 2.0 mph 6.0 mph 49 % 0.00 in
14:07 73.0 °F 52.7 °F 29.91 in South 3.6 mph 5.8 mph 49 % 0.00 in
14:12 73.0 °F 52.7 °F 29.90 in SW 1.6 mph 3.5 mph 49 % 0.00 in
14:18 73.1 °F 52.8 °F 29.90 in South 3.7 mph 5.8 mph 49 % 0.00 in
14:23 73.3 °F 53.0 °F 29.90 in SW 3.4 mph 6.0 mph 49 % 0.00 in
14:28 73.5 °F 53.2 °F 29.89 in South 3.8 mph 8.1 mph 49 % 0.00 in
14:33 73.7 °F 52.8 °F 29.89 in WSW 2.3 mph 5.8 mph 48 % 0.00 in
14:38 74.0 °F 53.1 °F 29.89 in South 2.3 mph 5.0 mph 48 % 0.00 in
14:43 74.3 °F 52.2 °F 29.89 in SSW 4.7 mph 9.2 mph 46 % 0.00 in
14:48 74.4 °F 52.3 °F 29.89 in SSW 4.1 mph 6.9 mph 46 % 0.00 in
14:53 74.6 °F 52.4 °F 29.89 in WSW 5.0 mph 7.0 mph 46 % 0.00 in
14:58 74.6 °F 52.4 °F 29.88 in SSW 3.7 mph 6.9 mph 46 % 0.00 in
15:03 74.7 °F 52.5 °F 29.87 in SW 3.7 mph 5.8 mph 46 % 0.00 in
15:14 74.9 °F 52.7 °F 29.86 in SSW 2.0 mph 4.6 mph 46 % 0.00 in
15:19 74.9 °F 52.7 °F 29.86 in South 4.5 mph 6.9 mph 46 % 0.00 in
15:24 74.9 °F 52.7 °F 29.86 in South 2.4 mph 3.5 mph 46 % 0.00 in
15:29 74.8 °F 52.6 °F 29.86 in SSW 4.4 mph 6.0 mph 46 % 0.00 in
15:34 74.7 °F 52.5 °F 29.86 in South 3.5 mph 9.2 mph 46 % 0.00 in
15:39 74.6 °F 52.4 °F 29.86 in South 3.0 mph 9.2 mph 46 % 0.00 in
15:44 74.5 °F 52.4 °F 29.86 in SSW 1.8 mph 5.0 mph 46 % 0.00 in
15:49 74.5 °F 52.4 °F 29.86 in SW 2.3 mph 5.8 mph 46 % 0.00 in
15:54 74.5 °F 52.4 °F 29.86 in SW 4.0 mph 5.8 mph 46 % 0.00 in
16:00 74.5 °F 52.9 °F 29.86 in South 0.5 mph 3.5 mph 47 % 0.00 in
16:05 74.6 °F 52.4 °F 29.86 in South 3.3 mph 5.8 mph 46 % 0.00 in
16:10 74.5 °F 52.4 °F 29.86 in SW 3.9 mph 6.9 mph 46 % 0.00 in
16:15 74.4 °F 52.9 °F 29.86 in South 4.0 mph 7.0 mph 47 % 0.00 in
16:21 74.2 °F 52.7 °F 29.86 in South 3.4 mph 9.2 mph 47 % 0.00 in
16:26 73.8 °F 52.9 °F 29.86 in South 4.9 mph 9.2 mph 48 % 0.00 in
16:31 73.3 °F 52.4 °F 29.86 in South 4.1 mph 8.1 mph 48 % 0.00 in
16:36 72.8 °F 52.5 °F 29.85 in SSW 4.4 mph 9.2 mph 49 % 0.00 in
16:41 72.3 °F 52.6 °F 29.85 in SSW 3.5 mph 8.1 mph 50 % 0.00 in
16:46 72.0 °F 52.9 °F 29.86 in South 3.9 mph 6.0 mph 51 % 0.00 in
16:51 71.8 °F 52.7 °F 29.85 in SSW 1.3 mph 3.0 mph 51 % 0.00 in
16:56 71.5 °F 52.9 °F 29.85 in SSW 2.7 mph 6.0 mph 52 % 0.00 in
17:01 71.2 °F 52.7 °F 29.85 in South 2.2 mph 3.5 mph 52 % 0.00 in
17:06 71.0 °F 53.0 °F 29.85 in SSW 0.6 mph 3.0 mph 53 % 0.00 in
17:11 70.8 °F 53.3 °F 29.85 in South 1.9 mph 3.5 mph 54 % 0.00 in
17:16 70.6 °F 53.1 °F 29.85 in SSW 1.4 mph 3.5 mph 54 % 0.00 in
17:21 70.4 °F 53.0 °F 29.84 in South 1.0 mph 3.5 mph 54 % 0.00 in
17:24 70.4 °F 53.0 °F 29.84 in SW 1.6 mph 3.5 mph 54 % 0.00 in
17:26 70.3 °F 52.9 °F 29.84 in SSW 1.9 mph 3.5 mph 54 % 0.00 in
17:27 70.3 °F 52.9 °F 29.84 in SSW 2.2 mph 3.5 mph 54 % 0.00 in
17:28 70.2 °F 52.8 °F 29.85 in SSW 2.5 mph 3.5 mph 54 % 0.00 in
17:29 70.2 °F 52.8 °F 29.84 in SSW 0.7 mph 3.5 mph 54 % 0.00 in
17:30 70.1 °F 52.7 °F 29.84 in SSW 2.2 mph 4.0 mph 54 % 0.00 in
17:35 69.9 °F 52.5 °F 29.84 in SSW 2.7 mph 4.6 mph 54 % 0.00 in
17:40 69.6 °F 52.2 °F 29.85 in SSE 1.3 mph 6.0 mph 54 % 0.00 in
17:45 69.4 °F 52.5 °F 29.84 in South 1.9 mph 3.5 mph 55 % 0.00 in
17:50 69.2 °F 51.8 °F 29.85 in WSW 3.0 mph 3.5 mph 54 % 0.00 in
17:55 68.9 °F 52.1 °F 29.85 in South 0.8 mph 3.5 mph 55 % 0.00 in
18:00 68.7 °F 51.9 °F 29.85 in Calm   2.3 mph 55 % 0.00 in
18:06 68.6 °F 51.8 °F 29.85 in SW 1.3 mph 3.5 mph 55 % 0.00 in
18:11 68.4 °F 52.1 °F 29.84 in SSW 2.6 mph 4.6 mph 56 % 0.00 in
18:16 68.3 °F 52.0 °F 29.85 in SSW 0.7 mph 2.3 mph 56 % 0.00 in
18:21 68.2 °F 51.9 °F 29.85 in SSW 1.8 mph 3.5 mph 56 % 0.00 in
18:26 68.1 °F 51.8 °F 29.85 in South 2.3 mph 5.0 mph 56 % 0.00 in
18:31 68.0 °F 52.2 °F 29.85 in SSW 0.9 mph 4.6 mph 57 % 0.00 in
18:36 67.9 °F 52.1 °F 29.85 in SSW 0.4 mph 3.5 mph 57 % 0.00 in
18:41 67.8 °F 52.0 °F 29.85 in SW 0.6 mph 2.3 mph 57 % 0.00 in
18:46 67.7 °F 51.9 °F 29.85 in SW 0.5 mph 2.3 mph 57 % 0.00 in
18:51 67.7 °F 52.4 °F 29.85 in SW 1.0 mph 2.3 mph 58 % 0.00 in
18:57 67.6 °F 52.3 °F 29.84 in SW 2.3 mph 3.0 mph 58 % 0.00 in
19:02 67.5 °F 52.2 °F 29.84 in SSW 2.0 mph 3.5 mph 58 % 0.00 in
19:07 67.4 °F 52.1 °F 29.84 in SSW 1.8 mph 3.5 mph 58 % 0.00 in
19:12 67.3 °F 52.5 °F 29.84 in SSW 2.4 mph 3.5 mph 59 % 0.00 in
19:17 67.2 °F 52.4 °F 29.84 in SSW 1.7 mph 2.3 mph 59 % 0.00 in
19:22 67.0 °F 52.2 °F 29.85 in NW 2.0 mph 8.1 mph 59 % 0.00 in
19:27 66.7 °F 51.5 °F 29.85 in NNW 3.1 mph 3.5 mph 58 % 0.00 in
19:32 66.2 °F 51.0 °F 29.85 in WNW 1.5 mph 2.3 mph 58 % 0.00 in
19:37 65.8 °F 50.6 °F 29.85 in WNW 0.7 mph 2.3 mph 58 % 0.00 in
19:42 65.5 °F 50.8 °F 29.85 in WNW 0.3 mph 2.3 mph 59 % 0.00 in
19:48 65.2 °F 50.5 °F 29.85 in Calm     59 % 0.00 in
19:53 65.0 °F 51.2 °F 29.85 in Calm     61 % 0.00 in
19:58 64.7 °F 51.4 °F 29.85 in Calm     62 % 0.00 in
20:03 64.4 °F 50.7 °F 29.85 in Calm     61 % 0.00 in
20:08 64.2 °F 50.9 °F 29.85 in WNW 0.4 mph 1.2 mph 62 % 0.00 in
20:13 63.9 °F 50.6 °F 29.86 in WNW 0.4 mph 1.2 mph 62 % 0.00 in
20:18 63.8 °F 50.5 °F 29.86 in Calm     62 % 0.00 in
20:23 63.6 °F 50.8 °F 29.86 in Calm     63 % 0.00 in
20:28 63.5 °F 51.1 °F 29.86 in Calm   1.2 mph 64 % 0.00 in
20:34 63.4 °F 51.0 °F 29.86 in WNW 0.2 mph 1.2 mph 64 % 0.00 in
20:39 63.3 °F 51.3 °F 29.85 in Calm     65 % 0.00 in
20:44 63.2 °F 51.2 °F 29.85 in Calm     65 % 0.00 in
20:49 63.2 °F 51.2 °F 29.86 in Calm     65 % 0.00 in
20:54 63.1 °F 51.1 °F 29.86 in Calm     65 % 0.00 in
20:59 63.0 °F 51.5 °F 29.86 in Calm     66 % 0.00 in
21:04 62.9 °F 51.4 °F 29.86 in WNW 0.8 mph 2.3 mph 66 % 0.00 in
21:09 62.9 °F 51.4 °F 29.86 in WNW 0.3 mph 1.2 mph 66 % 0.00 in
21:14 62.9 °F 51.8 °F 29.86 in WNW 1.1 mph 2.3 mph 67 % 0.00 in
21:19 62.9 °F 51.8 °F 29.87 in WNW 0.5 mph 1.2 mph 67 % 0.00 in
21:25 62.9 °F 51.8 °F 29.86 in Calm     67 % 0.00 in
21:30 62.9 °F 51.8 °F 29.86 in Calm     67 % 0.00 in
21:35 62.9 °F 51.8 °F 29.85 in WNW 0.4 mph   67 % 0.00 in
21:40 62.9 °F 52.2 °F 29.85 in WNW 0.3 mph 2.3 mph 68 % 0.00 in
21:45 62.9 °F 52.2 °F 29.85 in WNW 1.3 mph 2.3 mph 68 % 0.00 in
21:50 62.7 °F 52.0 °F 29.85 in WNW 1.5 mph 2.3 mph 68 % 0.00 in
21:55 62.7 °F 52.0 °F 29.85 in WNW 0.4 mph 2.3 mph 68 % 0.00 in
22:00 62.7 °F 52.0 °F 29.85 in Calm     68 % 0.00 in
22:05 62.7 °F 52.0 °F 29.85 in WNW 0.1 mph 1.0 mph 68 % 0.00 in
22:10 62.7 °F 52.4 °F 29.85 in Calm     69 % 0.00 in
22:16 62.6 °F 51.9 °F 29.84 in Calm   1.2 mph 68 % 0.00 in
22:21 62.4 °F 52.1 °F 29.85 in Calm   1.2 mph 69 % 0.00 in
22:26 62.2 °F 51.9 °F 29.85 in Calm     69 % 0.00 in
22:31 62.1 °F 52.2 °F 29.85 in WNW 0.1 mph 1.2 mph 70 % 0.00 in
22:36 62.0 °F 52.5 °F 29.85 in WNW 0.6 mph 1.2 mph 71 % 0.00 in
22:38 61.9 °F 52.4 °F 29.85 in Calm     71 % 0.00 in
22:48 61.8 °F 52.7 °F 29.84 in Calm     72 % 0.00 in
22:53 61.8 °F 53.1 °F 29.84 in Calm   1.2 mph 73 % 0.00 in
22:58 61.9 °F 53.5 °F 29.84 in West 1.0 mph 2.3 mph 74 % 0.00 in
23:03 61.9 °F 53.9 °F 29.84 in WSW 0.1 mph 2.3 mph 75 % 0.00 in
23:08 62.0 °F 54.0 °F 29.84 in WSW 2.1 mph 3.5 mph 75 % 0.00 in
23:13 62.2 °F 54.2 °F 29.84 in Calm   2.3 mph 75 % 0.00 in
23:18 62.3 °F 54.3 °F 29.85 in SW 0.5 mph 3.5 mph 75 % 0.00 in
23:23 62.5 °F 54.5 °F 29.85 in WSW 0.1 mph 2.3 mph 75 % 0.00 in
23:28 62.7 °F 54.7 °F 29.84 in WNW 3.1 mph 4.6 mph 75 % 0.00 in
23:34 62.9 °F 54.9 °F 29.84 in WNW 2.1 mph 4.0 mph 75 % 0.00 in
23:39 63.2 °F 55.1 °F 29.84 in WNW 0.8 mph 2.3 mph 75 % 0.00 in
23:44 63.4 °F 55.7 °F 29.84 in Calm   1.2 mph 76 % 0.00 in
23:49 63.5 °F 55.4 °F 29.85 in SSW 1.9 mph 3.5 mph 75 % 0.00 in
23:54 63.6 °F 55.9 °F 29.84 in WNW 2.5 mph 3.5 mph 76 % 0.00 in
23:59 63.7 °F 56.4 °F 29.84 in WNW 1.9 mph 10.4 mph 77 % 0.00 in
Crab Meadow Weather
Compliments of Weather Underground - 2.75 mb

Script developed by  Jim McMurry - jmcmurry@mwt.net Adapted for the template by  Wim van der Kuil - Leuven-Template.eu

Astronomy: Water covers 71% of Earth.